Location: Black Swamp Observatory
(41.3920°N, 84.1250°W)
Time: 03:05:19
(UTC-04:00)

Amateur Radio Satellites - All Passes

Search period start: 19 April 2014 02:35
Search period end: 20 April 2014 02:35
Location: Black Swamp Observatory, 41.3920°N, 84.1250°W

Satellite Date Start Highest point End Downlink Frequencies (MHz)
Time Altitude Azimuth
Sapphire 19 Apr 02:35:48 02:40:56 43° 306° (NW) 02:46:07 437.095 MHz 1200 baud AX-25 AFSK
SO-50 19 Apr 02:35:53 02:39:35 24° 248° (WSW) 02:43:18 436.795 FM
AO-27 19 Apr 02:39:55 02:43:19 17° 92° (E) 02:46:42 436.795 MHz FM
ITAMSAT 1 19 Apr 02:50:22 02:54:18 22° 93° (E) 02:58:13 435.822 SSB
Oscar 19 19 Apr 02:55:52 03:00:54 47° 99° (E) 03:05:53 437.125 CW, 437.150 USB
AO-Echo 19 Apr 03:03:48 03:07:28 22° 93° (E) 03:11:04 ?
Oscar 16 19 Apr 03:03:57 03:09:07 60° 101° (E) 03:14:14 437.025 USB, Beacon 2401.1428
OPAL 19 Apr 03:15:33 03:20:33 75° 72° (ENE) 03:25:39 ?
UOSAT-12 19 Apr 03:21:30 03:26:13 65° 55° (NE) 03:30:53 437.025 FM, 437.400 FM
PCSat 19 Apr 03:22:27 03:26:26 20° 316° (NW) 03:30:26 145.825 MHz
AO-40 19 Apr 03:28:35 09:42:30 36° 182° (S) 14:59:39 Beacon 2401.320
Uribyol 2 19 Apr 03:38:05 03:43:14 65° 102° (ESE) 03:48:22 436.500 FM
KITSAT 1 19 Apr 04:01:35 04:09:41 80° 118° (ESE) 04:17:49 435.175 FM
Gurwin Techsat 1B 19 Apr 04:07:19 04:12:13 37° 97° (E) 04:17:05 435.225 FM
AO-27 19 Apr 04:18:07 04:23:11 57° 288° (WNW) 04:28:14 436.795 MHz FM
ITAMSAT 1 19 Apr 04:29:05 04:34:00 46° 290° (WNW) 04:38:55 435.822 SSB
JAS-1B 19 Apr 04:35:42 04:40:06 23° 94° (E) 04:44:36 435.800 - 435.900 CW/SSB
Oscar 19 19 Apr 04:35:57 04:39:55 23° 296° (WNW) 04:43:52 437.125 CW, 437.150 USB
AO-Echo 19 Apr 04:41:58 04:46:24 38° 290° (WNW) 04:50:45 ?
Oscar 16 19 Apr 04:44:32 04:47:58 18° 298° (WNW) 04:51:25 437.025 USB, Beacon 2401.1428
TMSAT-1 19 Apr 04:55:38 05:00:56 74° 103° (ESE) 05:06:13 436.925 FM
OPAL 19 Apr 04:57:54 05:00:00 13° 269° (W) 05:02:07 ?
Uosat F 19 Apr 04:59:51 05:04:10 29° 96° (E) 05:08:27 435.120 FM
UOSAT-12 19 Apr 05:03:12 05:05:50 15° 252° (WSW) 05:08:27 437.025 FM, 437.400 FM
Uribyol 2 19 Apr 05:18:58 05:22:10 17° 299° (WNW) 05:25:23 436.500 FM
Gurwin Techsat 1B 19 Apr 05:47:33 05:52:03 29° 294° (WNW) 05:56:32 435.225 FM
AO-7 19 Apr 05:51:55 06:00:02 54° 102° (ESE) 06:08:07 29.400 - 29.500 MHz
STRAND 1 19 Apr 05:56:00 05:58:15 13° 59° (ENE) 06:00:29 ?
KITSAT 1 19 Apr 05:59:08 06:05:57 29° 320° (NW) 06:12:49 435.175 FM
RS-15 19 Apr 06:11:05 06:18:59 22° 101° (E) 06:26:41 29.354 - 29.394 USB, Beacon 29.352 USB
JAS-1B 19 Apr 06:25:42 06:31:04 45° 291° (WNW) 06:36:35 435.800 - 435.900 CW/SSB
TMSAT-1 19 Apr 06:37:14 06:40:14 15° 300° (WNW) 06:43:13 436.925 FM
Uosat F 19 Apr 06:38:30 06:42:57 33° 292° (WNW) 06:47:23 435.120 FM
STRAND 1 19 Apr 07:31:36 07:36:43 84° 256° (WSW) 07:41:52 ?
AO-7 19 Apr 07:45:10 07:52:30 37° 301° (WNW) 07:59:51 29.400 - 29.500 MHz
KITSAT 1 19 Apr 08:01:54 08:04:43 12° 349° (NNW) 08:07:32 435.175 FM
Hamsat 19 Apr 08:04:07 08:08:29 79° 284° (WNW) 08:12:50 145.90 MHz
MaSat-1 19 Apr 08:10:21 08:13:19 74° 246° (WSW) 08:16:50 437.345 MHz
SO-67 19 Apr 08:11:03 08:13:42 20° 94° (E) 08:16:19 435.3500 MHz FM
RS-15 19 Apr 08:18:28 08:29:50 90° 121° (ESE) 08:40:53 29.354 - 29.394 USB, Beacon 29.352 USB
JAS-2 19 Apr 08:28:20 08:33:36 52° 101° (E) 08:39:22 435.800 - 435.900 CW/SSB, 435.910 FM
PCSat 19 Apr 08:43:58 08:45:45 12° 36° (NE) 08:47:33 145.825 MHz
Sapphire 19 Apr 09:40:35 09:45:03 25° 47° (NE) 09:49:30 437.095 MHz 1200 baud AX-25 AFSK
SO-67 19 Apr 09:44:00 09:46:48 23° 290° (WNW) 09:49:35 435.3500 MHz FM
KITSAT 1 19 Apr 10:00:24 10:04:31 14° 21° (NNE) 10:08:38 435.175 FM
JAS-2 19 Apr 10:14:28 10:18:26 22° 295° (WNW) 10:22:39 435.800 - 435.900 CW/SSB, 435.910 FM
PANSAT 19 Apr 10:18:21 10:19:02 10° 171° (S) 10:19:42 not established
PCSat 19 Apr 10:25:03 10:30:24 56° 57° (ENE) 10:35:43 145.825 MHz
RS-15 19 Apr 10:34:06 10:43:45 32° 327° (NNW) 10:53:16 29.354 - 29.394 USB, Beacon 29.352 USB
HO-68 19 Apr 10:37:48 10:44:53 57° 102° (ESE) 10:51:55 435.675 MHz FM
Saudisat 1A 19 Apr 10:55:52 10:58:23 15° 109° (ESE) 11:00:54 436.775 MHz
FUNcube-1 19 Apr 11:05:23 11:07:34 14° 91° (E) 11:09:46 145.950 - 145.970 MHz USB
Oscar 11 19 Apr 11:14:31 11:18:49 56° 100° (E) 11:23:06 145.825 FM, Beacon 2401.500 USB
Sapphire 19 Apr 11:23:31 11:28:47 53° 246° (WSW) 11:34:00 437.095 MHz 1200 baud AX-25 AFSK
KITSAT 1 19 Apr 11:54:59 12:02:34 41° 47° (NE) 12:10:04 435.175 FM
PANSAT 19 Apr 11:57:03 11:58:27 12° 184° (S) 11:59:51 not established
PCSat 19 Apr 12:09:28 12:13:22 20° 254° (WSW) 12:17:15 145.825 MHz
HO-68 19 Apr 12:26:12 12:32:10 29° 300° (WNW) 12:38:07 435.675 MHz FM
Saudisat 1A 19 Apr 12:33:05 12:37:30 60° 306° (NW) 12:41:56 436.775 MHz
FUNcube-1 19 Apr 12:40:08 12:44:16 51° 287° (WNW) 12:48:28 145.950 - 145.970 MHz USB
Oscar 16 19 Apr 12:45:53 12:47:37 12° 58° (ENE) 12:49:20 437.025 USB, Beacon 2401.1428
Oscar 11 19 Apr 12:52:14 12:54:33 14° 297° (WNW) 12:56:52 145.825 FM, Beacon 2401.500 USB
RS-15 19 Apr 12:53:20 13:00:56 20° 3° (N) 13:08:32 29.354 - 29.394 USB, Beacon 29.352 USB
Uribyol 2 19 Apr 13:20:12 13:22:31 13° 59° (ENE) 13:24:51 436.500 FM
KITSAT 1 19 Apr 13:50:24 13:58:09 51° 248° (WSW) 14:05:50 435.175 FM
AO-27 19 Apr 13:57:55 14:02:17 28° 66° (ENE) 14:06:38 436.795 MHz FM
ITAMSAT 1 19 Apr 14:08:20 14:12:57 34° 68° (ENE) 14:17:34 435.822 SSB
Oscar 19 19 Apr 14:12:48 14:17:53 68° 73° (ENE) 14:23:02 437.125 CW, 437.150 USB
AO-Echo 19 Apr 14:16:18 14:20:53 32° 68° (ENE) 14:25:23 ?
Saudisat 1A 19 Apr 14:17:02 14:18:02 11° 326° (NW) 14:19:03 436.775 MHz
Oscar 16 19 Apr 14:21:01 14:26:09 87° 75° (ENE) 14:31:20 437.025 USB, Beacon 2401.1428
TMSAT-1 19 Apr 14:39:31 14:42:33 16° 60° (ENE) 14:45:35 436.925 FM
Uribyol 2 19 Apr 14:56:07 15:01:17 84° 256° (WSW) 15:06:28 436.500 FM
AO-7 19 Apr 15:02:47 15:07:34 17° 48° (NE) 15:12:20 29.400 - 29.500 MHz
RS-15 19 Apr 15:07:53 15:17:47 37° 37° (NE) 15:27:46 29.354 - 29.394 USB, Beacon 29.352 USB
SO-50 19 Apr 15:12:57 15:14:39 12° 108° (ESE) 15:16:21 436.795 FM
JAS-1B 19 Apr 15:20:31 15:26:48 27° 64° (ENE) 15:32:18 435.800 - 435.900 CW/SSB
OPAL 19 Apr 15:26:17 15:30:04 20° 95° (E) 15:33:49 ?
Gurwin Techsat 1B 19 Apr 15:28:25 15:33:37 58° 72° (ENE) 15:38:50 435.225 FM
AO-27 19 Apr 15:36:52 15:41:38 37° 262° (W) 15:46:26 436.795 MHz FM
ISS 19 Apr 15:47:34 15:50:35 32° 136° (SE) 15:53:37 145.800 FM
ITAMSAT 1 19 Apr 15:47:56 15:52:26 30° 264° (W) 15:56:57 435.822 SSB
AO-Echo 19 Apr 15:54:56 15:59:35 32° 264° (W) 16:04:11 ?
Oscar 19 19 Apr 15:55:01 15:57:43 14° 270° (W) 16:00:26 437.125 CW, 437.150 USB
Oscar 10/S400 19 Apr 16:00:35 16:44:32 13° 275° (W) 17:44:01 145.825 - 145.975 CW/USB, Beacon 145.810 USB
Oscar 16 19 Apr 16:05:07 16:06:10 11° 272° (W) 16:07:14 437.025 USB, Beacon 2401.1428
Uosat F 19 Apr 16:13:07 16:17:48 41° 69° (ENE) 16:22:29 435.120 FM
TMSAT-1 19 Apr 16:16:34 16:21:50 73° 258° (WSW) 16:27:09 436.925 FM
SO-50 19 Apr 16:50:07 16:54:35 72° 304° (NW) 16:59:07 436.795 FM
AO-7 19 Apr 16:50:43 16:58:56 71° 68° (ENE) 17:07:10 29.400 - 29.500 MHz
OPAL 19 Apr 17:04:09 17:09:13 52° 291° (WNW) 17:14:15 ?
JAS-1B 19 Apr 17:09:00 17:17:07 61° 258° (WSW) 17:23:55 435.800 - 435.900 CW/SSB
Gurwin Techsat 1B 19 Apr 17:10:28 17:13:57 18° 269° (W) 17:17:27 435.225 FM
RS-15 19 Apr 17:20:15 17:31:11 77° 242° (WSW) 17:42:24 29.354 - 29.394 USB, Beacon 29.352 USB
ISS 19 Apr 17:24:12 17:27:18 34° 334° (NNW) 17:30:25 145.800 FM
UOSAT-12 19 Apr 17:34:16 17:37:24 19° 110° (ESE) 17:40:35 437.025 FM, 437.400 FM
Uosat F 19 Apr 17:52:44 17:56:43 23° 266° (W) 18:00:42 435.120 FM
SO-50 19 Apr 18:34:08 18:35:59 12° 324° (NW) 18:37:52 436.795 FM
JAS-2 19 Apr 18:42:29 18:46:42 22° 65° (ENE) 18:50:42 435.800 - 435.900 CW/SSB, 435.910 FM
AO-7 19 Apr 18:45:55 18:52:21 25° 266° (W) 18:58:51 29.400 - 29.500 MHz
Hamsat 19 Apr 18:57:32 19:01:42 74° 76° (ENE) 19:05:57 145.90 MHz
ISS 19 Apr 19:02:45 19:04:48 15° 353° (N) 19:06:51 145.800 FM
UOSAT-12 19 Apr 19:12:43 19:17:09 51° 307° (NW) 19:21:42 437.025 FM, 437.400 FM
Saudisat 1A 19 Apr 19:21:26 19:24:14 16° 40° (NE) 19:27:00 436.775 MHz
RS-15 19 Apr 19:35:32 19:41:37 17° 262° (W) 19:47:49 29.354 - 29.394 USB, Beacon 29.352 USB
STRAND 1 19 Apr 19:42:32 19:47:06 32° 97° (E) 19:51:37 ?
SO-67 19 Apr 20:16:58 20:20:26 67° 259° (W) 20:23:56 435.3500 MHz FM
JAS-2 19 Apr 20:25:50 20:31:33 51° 260° (W) 20:36:47 435.800 - 435.900 CW/SSB, 435.910 FM
ISS 19 Apr 20:40:08 20:42:32 18° 14° (NNE) 20:44:56 145.800 FM
UOSAT-12 19 Apr 20:58:17 20:58:26 10° 328° (NNW) 20:58:35 437.025 FM, 437.400 FM
Saudisat 1A 19 Apr 20:59:56 21:04:21 74° 239° (WSW) 21:08:42 436.775 MHz
HO-68 19 Apr 21:06:26 21:13:03 44° 65° (ENE) 21:19:43 435.675 MHz FM
STRAND 1 19 Apr 21:21:48 21:26:13 30° 293° (WNW) 21:30:37 ?
FUNcube-1 19 Apr 22:03:30 22:05:02 12° 63° (ENE) 22:06:33 145.950 - 145.970 MHz USB
Oscar 11 19 Apr 22:09:42 22:13:47 44° 72° (ENE) 22:17:54 145.825 FM, Beacon 2401.500 USB
MaSat-1 19 Apr 22:14:07 22:17:00 48° 114° (ESE) 22:19:33 437.345 MHz
ISS 19 Apr 22:16:27 22:19:48 62° 33° (NNE) 22:23:07 145.800 FM
HO-68 19 Apr 22:54:20 23:00:48 37° 263° (W) 23:07:19 435.675 MHz FM
FUNcube-1 19 Apr 23:36:46 23:40:57 63° 259° (W) 23:45:05 145.950 - 145.970 MHz USB
SO-50 19 Apr 23:42:16 23:45:11 16° 40° (NE) 23:48:08 436.795 FM
Oscar 11 19 Apr 23:47:31 23:50:12 16° 268° (W) 23:52:54 145.825 FM, Beacon 2401.500 USB
ISS 19 Apr 23:54:06 23:56:12 16° 229° (SW) 23:58:19 145.800 FM
Sapphire 20 Apr 00:23:43 00:27:31 20° 106° (ESE) 00:31:20 437.095 MHz 1200 baud AX-25 AFSK
PCSat 20 Apr 01:06:50 01:12:02 51° 113° (ESE) 01:17:16 145.825 MHz
SO-50 20 Apr 01:21:40 01:26:20 81° 239° (WSW) 01:31:03 436.795 FM
Oscar 10/S400 20 Apr 01:49:47 02:00:36 15° 128° (SE) 02:16:08 145.825 - 145.975 CW/USB, Beacon 145.810 USB
UOSAT-12 20 Apr 02:02:44 02:06:20 21° 43° (NE) 02:09:55 437.025 FM, 437.400 FM
Sapphire 20 Apr 02:05:08 02:10:27 58° 303° (WNW) 02:15:49 437.095 MHz 1200 baud AX-25 AFSK
ITAMSAT 1 20 Apr 02:23:29 02:24:55 11° 89° (E) 02:26:22 435.822 SSB
Oscar 19 20 Apr 02:25:00 02:29:11 24° 94° (E) 02:33:21 437.125 CW, 437.150 USB
